Time,TemperatureF,DewpointF,PressureIn,WindDirection,WindDirectionDegrees,WindSpeedMPH,WindSpeedGustMPH,Humidity,HourlyPrecipIn,Conditions,Clouds,dailyrainin,SolarRadiationWatts/m^2,SoftwareType,DateUTC
2013-02-11 00:01:00,39.0,6.0,29.98,West,277,14.0,18.0,24,-99.99,,,-99.99,0.000000,,2013-02-11 07:01:00,
2013-02-11 00:11:00,39.0,6.0,29.98,West,277,15.0,21.0,25,-99.99,,,-99.99,0.000000,,2013-02-11 07:11:00,
2013-02-11 00:21:00,39.0,6.0,29.98,West,277,15.0,21.0,25,-99.99,,,-99.99,0.000000,,2013-02-11 07:21:00,
2013-02-11 00:32:00,37.0,7.0,29.98,West,279,15.0,20.0,27,-99.99,,,-99.99,0.000000,,2013-02-11 07:32:00,
2013-02-11 00:41:00,37.0,8.0,29.98,West,280,16.0,20.0,29,-99.99,,,-99.99,0.000000,,2013-02-11 07:41:00,
2013-02-11 00:52:00,37.0,8.0,29.98,West,280,16.0,20.0,29,-99.99,,,-99.99,0.000000,,2013-02-11 07:52:00,
2013-02-11 01:01:00,37.0,8.0,29.98,West,280,16.0,20.0,29,-99.99,,,-99.99,0.000000,,2013-02-11 08:01:00,
2013-02-11 01:11:00,37.0,8.0,29.98,West,280,16.0,20.0,29,-99.99,,,-99.99,0.000000,,2013-02-11 08:11:00,
2013-02-11 01:32:00,36.0,8.0,29.97,WNW,289,16.0,20.0,30,-99.99,,,-99.99,0.000000,,2013-02-11 08:32:00,
2013-02-11 01:42:00,36.0,8.0,29.97,WNW,289,16.0,20.0,30,-99.99,,,-99.99,0.000000,,2013-02-11 08:42:00,
2013-02-11 01:52:00,36.0,8.0,29.97,WNW,289,16.0,20.0,30,-99.99,,,-99.99,0.000000,,2013-02-11 08:52:00,
2013-02-11 02:01:00,38.0,8.0,29.98,WNW,295,14.0,23.0,28,-99.99,,,-99.99,0.000000,,2013-02-11 09:01:00,
2013-02-11 02:12:00,38.0,8.0,29.98,WNW,288,13.0,25.0,28,-99.99,,,-99.99,0.000000,,2013-02-11 09:12:00,
2013-02-11 02:21:00,38.0,8.0,29.98,WNW,288,13.0,25.0,28,-99.99,,,-99.99,0.000000,,2013-02-11 09:21:00,
2013-02-11 02:32:00,38.0,8.0,29.97,WNW,294,14.0,22.0,27,-99.99,,,-99.99,0.000000,,2013-02-11 09:32:00,
2013-02-11 02:41:00,38.0,8.0,29.97,WNW,292,12.0,18.0,28,-99.99,,,-99.99,0.000000,,2013-02-11 09:41:00,
2013-02-11 02:52:00,38.0,8.0,29.97,WNW,292,12.0,18.0,28,-99.99,,,-99.99,0.000000,,2013-02-11 09:52:00,
2013-02-11 03:01:00,37.0,8.0,29.97,WNW,298,11.0,15.0,28,-99.99,,,-99.99,0.000000,,2013-02-11 10:01:00,
2013-02-11 03:11:00,38.0,8.0,29.97,WNW,299,9.0,15.0,28,-99.99,,,-99.99,0.000000,,2013-02-11 10:11:00,
2013-02-11 03:21:00,38.0,8.0,29.97,WNW,299,9.0,15.0,28,-99.99,,,-99.99,0.000000,,2013-02-11 10:21:00,
2013-02-11 03:31:00,37.0,8.0,29.97,West,270,6.0,11.0,28,-99.99,,,-99.99,0.000000,,2013-02-11 10:31:00,
2013-02-11 03:42:00,37.0,8.0,29.97,West,270,6.0,11.0,28,-99.99,,,-99.99,0.000000,,2013-02-11 10:42:00,
2013-02-11 03:52:00,37.0,8.0,29.97,West,270,6.0,11.0,28,-99.99,,,-99.99,0.000000,,2013-02-11 10:52:00,
2013-02-11 04:01:00,38.0,7.0,29.97,West,281,6.0,10.0,27,-99.99,,,-99.99,0.000000,,2013-02-11 11:01:00,
2013-02-11 04:11:00,36.0,7.0,29.97,West,263,4.0,8.0,28,-99.99,,,-99.99,0.000000,,2013-02-11 11:11:00,
2013-02-11 04:22:00,36.0,7.0,29.97,West,263,4.0,8.0,28,-99.99,,,-99.99,0.000000,,2013-02-11 11:22:00,
2013-02-11 04:32:00,38.0,6.0,29.97,West,274,5.0,10.0,25,-99.99,,,-99.99,0.000000,,2013-02-11 11:32:00,
2013-02-11 04:42:00,38.0,5.0,29.97,West,271,8.0,11.0,24,-99.99,,,-99.99,0.000000,,2013-02-11 11:42:00,
2013-02-11 04:52:00,38.0,5.0,29.97,West,271,8.0,11.0,24,-99.99,,,-99.99,0.000000,,2013-02-11 11:52:00,
2013-02-11 05:03:00,38.0,5.0,29.97,West,271,8.0,11.0,24,-99.99,,,-99.99,0.000000,,2013-02-11 12:03:00,
2013-02-11 05:12:00,38.0,5.0,29.97,West,271,8.0,11.0,24,-99.99,,,-99.99,0.000000,,2013-02-11 12:12:00,
2013-02-11 06:32:00,36.0,6.0,29.98,NE,49,5.0,6.0,27,-99.99,,,-99.99,0.000000,,2013-02-11 13:32:00,
2013-02-11 06:42:00,37.0,7.0,29.98,NE,38,5.0,7.0,28,-99.99,,,-99.99,0.000000,,2013-02-11 13:42:00,
2013-02-11 06:52:00,37.0,7.0,29.98,NE,38,5.0,7.0,28,-99.99,,,-99.99,0.000000,,2013-02-11 13:52:00,
2013-02-11 07:02:00,37.0,7.0,29.98,NE,38,5.0,7.0,28,-99.99,,,-99.99,0.000000,,2013-02-11 14:02:00,
2013-02-11 07:11:00,37.0,4.0,29.99,NE,34,4.0,7.0,24,-99.99,,,-99.99,0.700000,,2013-02-11 14:11:00,
2013-02-11 07:22:00,37.0,4.0,29.99,NE,34,4.0,7.0,24,-99.99,,,-99.99,0.700000,,2013-02-11 14:22:00,
2013-02-11 07:33:00,38.0,2.0,29.99,NW,318,1.0,6.0,21,-99.99,,,-99.99,7.670000,,2013-02-11 14:33:00,
2013-02-11 07:42:00,39.0,1.0,29.99,NNW,341,2.0,6.0,19,-99.99,,,-99.99,39.049999,,2013-02-11 14:42:00,
2013-02-11 07:53:00,39.0,1.0,29.99,NNW,341,2.0,6.0,19,-99.99,,,-99.99,39.049999,,2013-02-11 14:53:00,
2013-02-11 08:02:00,39.0,1.0,29.99,NNW,341,2.0,6.0,19,-99.99,,,-99.99,39.049999,,2013-02-11 15:02:00,
2013-02-11 08:11:00,40.0,7.0,30.00,NE,34,2.0,5.0,24,-99.99,,,-99.99,148.529999,,2013-02-11 15:11:00,
2013-02-11 08:22:00,40.0,7.0,30.00,NE,34,2.0,5.0,24,-99.99,,,-99.99,148.529999,,2013-02-11 15:22:00,
2013-02-11 08:32:00,40.0,8.0,30.00,WSW,239,9.0,14.0,26,-99.99,,,-99.99,201.529999,,2013-02-11 15:32:00,
2013-02-11 08:42:00,40.0,9.0,30.01,WSW,251,10.0,17.0,27,-99.99,,,-99.99,257.320007,,2013-02-11 15:42:00,
2013-02-11 08:52:00,40.0,9.0,30.01,WSW,251,10.0,17.0,27,-99.99,,,-99.99,257.320007,,2013-02-11 15:52:00,
2013-02-11 09:02:00,40.0,9.0,30.01,WSW,251,10.0,17.0,27,-99.99,,,-99.99,257.320007,,2013-02-11 16:02:00,
2013-02-11 09:11:00,40.0,9.0,30.00,WSW,257,10.0,17.0,27,-99.99,,,-99.99,313.100006,,2013-02-11 16:11:00,
2013-02-11 09:22:00,40.0,9.0,30.00,WSW,257,10.0,17.0,27,-99.99,,,-99.99,313.100006,,2013-02-11 16:22:00,
2013-02-11 09:32:00,40.0,9.0,30.01,WSW,251,11.0,19.0,27,-99.99,,,-99.99,367.489990,,2013-02-11 16:32:00,
2013-02-11 09:42:00,41.0,11.0,30.00,WSW,248,13.0,21.0,28,-99.99,,,-99.99,418.399994,,2013-02-11 16:42:00,
2013-02-11 09:52:00,41.0,11.0,30.00,WSW,248,13.0,21.0,28,-99.99,,,-99.99,418.399994,,2013-02-11 16:52:00,
2013-02-11 10:02:00,41.0,11.0,30.01,WSW,252,12.0,23.0,28,-99.99,,,-99.99,511.839996,,2013-02-11 17:02:00,
2013-02-11 10:11:00,42.0,12.0,30.01,WSW,250,15.0,24.0,29,-99.99,,,-99.99,556.469971,,2013-02-11 17:11:00,
2013-02-11 10:22:00,42.0,12.0,30.01,WSW,250,15.0,24.0,29,-99.99,,,-99.99,556.469971,,2013-02-11 17:22:00,
2013-02-11 10:32:00,42.0,13.0,30.01,WSW,238,14.0,23.0,29,-99.99,,,-99.99,682.690002,,2013-02-11 17:32:00,
2013-02-11 10:42:00,42.0,13.0,30.01,WSW,243,14.0,23.0,29,-99.99,,,-99.99,485.339996,,2013-02-11 17:42:00,
2013-02-11 10:53:00,42.0,13.0,30.01,WSW,243,14.0,23.0,29,-99.99,,,-99.99,485.339996,,2013-02-11 17:53:00,
2013-02-11 11:02:00,42.0,13.0,30.01,WSW,250,16.0,24.0,30,-99.99,,,-99.99,643.640015,,2013-02-11 18:02:00,
2013-02-11 11:11:00,42.0,14.0,30.01,WSW,254,15.0,22.0,30,-99.99,,,-99.99,460.239990,,2013-02-11 18:11:00,
2013-02-11 11:21:00,42.0,14.0,30.01,WSW,254,15.0,22.0,30,-99.99,,,-99.99,460.239990,,2013-02-11 18:21:00,
2013-02-11 11:32:00,42.0,14.0,30.01,WSW,251,17.0,23.0,30,-99.99,,,-99.99,537.640015,,2013-02-11 18:32:00,
2013-02-11 11:42:00,44.0,14.0,30.00,WSW,257,17.0,28.0,29,-99.99,,,-99.99,792.169983,,2013-02-11 18:42:00,
2013-02-11 11:53:00,44.0,14.0,30.00,WSW,257,17.0,28.0,29,-99.99,,,-99.99,792.169983,,2013-02-11 18:53:00,
2013-02-11 12:02:00,43.0,14.0,29.99,WSW,253,14.0,23.0,29,-99.99,,,-99.99,656.890015,,2013-02-11 19:02:00,
2013-02-11 12:11:00,43.0,14.0,29.99,WSW,251,17.0,26.0,30,-99.99,,,-99.99,417.700012,,2013-02-11 19:11:00,
2013-02-11 12:21:00,43.0,14.0,29.99,WSW,251,17.0,26.0,30,-99.99,,,-99.99,417.700012,,2013-02-11 19:21:00,
2013-02-11 12:30:00,44.0,15.0,29.97,WSW,240,18.0,30.0,31,-99.99,,,-99.99,664.559998,,2013-02-11 19:30:00,
2013-02-11 12:32:00,43.0,14.0,29.99,WSW,251,17.0,26.0,30,-99.99,,,-99.99,417.700012,,2013-02-11 19:32:00,
2013-02-11 12:41:00,43.0,14.0,29.99,WSW,251,17.0,26.0,30,-99.99,,,-99.99,417.700012,,2013-02-11 19:41:00,
2013-02-11 13:01:00,44.0,15.0,29.97,WSW,240,18.0,30.0,31,-99.99,,,-99.99,664.559998,,2013-02-11 20:01:00,
2013-02-11 13:11:00,44.0,15.0,29.97,WSW,240,18.0,30.0,31,-99.99,,,-99.99,664.559998,,2013-02-11 20:11:00,
2013-02-11 13:21:00,44.0,15.0,29.97,WSW,240,18.0,30.0,31,-99.99,,,-99.99,664.559998,,2013-02-11 20:21:00,